Regional Weather Roundup
Issued by NWS

Home | Current Version | Previous Version | Graphics & Text | Print | Product List | Glossary On
Versions: 1 2 3 4 5 6 7 8 9 10 11 12 13 14 15 16 17 18 19 20 21 22 23 24 25 26 27 28 29 30 31 32 33 34 35 36 37 38 39 40 41 42 43 44 45 46 47 48 49 50
000
ASUS43 KOAX 222110
RWRNE

WEATHER ROUNDUP FOR NEBRASKA
NATIONAL WEATHER SERVICE OMAHA NE
300 PM CST SAT NOV 22 2014

NOTES: SATELLITE DATA IS BEING USED TO AUGMENT CLOUD COVER ABOVE
       12000 FEET.
       "FAIR" INDICATES FEW OR NO CLOUDS BELOW 12,000 FEET WITH NO
       SIGNIFICANT WEATHER AND/OR OBSTRUCTIONS TO VISIBILITY.

  * THESE STATIONS DO NOT REPORT WEATHER SUCH AS RAIN...SNOW OR FOG.

NEZ001>004-019>022-054>056-222200-
NEBRASKA PANHANDLE

CITY           SKY/WX    TMP DP  RH WIND       PRES   REMARKS
SCOTTSBLUFF    CLOUDY    58  23  26 W8        29.54F
ALLIANCE       CLOUDY    58  21  24 SW16      29.53F
CHADRON        CLOUDY    56  29  35 W6        29.47F
KIMBALL        PTSUNNY   53  15  22 SW12      29.56F
SIDNEY         MOSUNNY   60  18  19 SW7       29.57F
$$

NEZ057>060-069>072-079>082-222200-
SOUTHWEST NEBRASKA

CITY           SKY/WX    TMP DP  RH WIND       PRES   REMARKS
NORTH PLATTE   PTSUNNY   66  16  14 SW10      29.55F
IMPERIAL       PTSUNNY   68  14  12 CALM      29.54F
LEXINGTON      CLOUDY    61  27  27 S13       29.57F
MCCOOK         PTSUNNY   70  20  15 S15G23    29.56F
OGALLALA       PTSUNNY   62  23  22 SW5       29.56F
$$

NEZ005>010-023>029-035>040-094-222200-
NORTH CENTRAL NEBRASKA

CITY           SKY/WX    TMP DP  RH WIND       PRES   REMARKS
VALENTINE      MOSUNNY   62  26  25 W21G31    29.45F
AINSWORTH      MOSUNNY   66  21  18 SW15G23   29.46F
BROKEN BOW     PTSUNNY   64  25  22 S17G29    29.55F
O`NEILL        CLOUDY    61  33  35 S15G21    29.50F
ORD            CLOUDY    58  28  32 S14       29.55F
THEDFORD       MOSUNNY   65  23  19 SW17      29.52F
$$

NEZ041-046>049-061>064-073>077-083>087-222200-
SOUTH CENTRAL NEBRASKA

CITY           SKY/WX    TMP DP  RH WIND       PRES   REMARKS
GRAND ISLAND   MOSUNNY  N/A N/A N/A S13       29.62F
AURORA         MOSUNNY   55  37  51 S12       29.63F
HASTINGS       MOSUNNY   56  34  43 S12       29.62F
HEBRON         SUNNY     61  42  49 S10G18    29.66F
HOLDREGE       MOSUNNY   58  27  31 S12       29.61F
KEARNEY *      PTSUNNY   57  27  30 SE15      29.63F
YORK           SUNNY     52  41  66 S15       29.64F
$$

NEZ011>018-030>034-042>045-222200-
NORTHEAST NEBRASKA

CITY           SKY/WX    TMP DP  RH WIND       PRES   REMARKS
NORFOLK        MOSUNNY   47  38  71 S10       29.60F
ALBION         PTSUNNY   50  35  55 S12       29.60F
BLAIR          SUNNY     55  42  61 S13G20    29.66F
COLUMBUS *     SUNNY     48  39  71 S9        29.65F
FREMONT        SUNNY     53  41  63 S12       29.67F
TEKAMAH        SUNNY     51  40  65 S10       29.67F
WAYNE          MOSUNNY   43  37  80 S12G18    29.61F
$$

NEZ050>053-065>068-078-088>093-222200-
SOUTHEAST NEBRASKA

CITY           SKY/WX    TMP DP  RH WIND       PRES   REMARKS
LINCOLN        SUNNY     58  43  57 S18       29.66F
OMAHA EPPLEY   MOSUNNY   56  43  61 S12       29.68F
BEATRICE       CLOUDY    55  50  83 S20G25    29.69F
FALLS CITY     CLOUDY    55  53  93 S6        29.74F FOG
NEBRASKA CITY  CLOUDY    54  52  94 SW12      29.71F FOG
PLATTSMOUTH    MOSUNNY   57  48  72 S22G28    29.69F
$$

NEZ044-045-051>053-067-222200-
OMAHA AREA

CITY           SKY/WX    TMP DP  RH WIND       PRES   REMARKS
OMAHA EPPLEY   MOSUNNY   56  43  61 S12       29.68F
BLAIR          SUNNY     55  42  61 S13G20    29.66F
FREMONT        SUNNY     53  41  63 S12       29.67F
MILLARD        SUNNY     58  45  61 S10       29.67F
OFFUTT AFB     SUNNY     59  47  65 S14       29.67F
PLATTSMOUTH    MOSUNNY   57  48  72 S22G28    29.69F
WAHOO          FAIR      55  40  57 S13       29.67F
$$



USA.gov is the U.S. government's official web portal to all federal, state and local government web resources and services.